LA6LOA-1 Weather Reports


Display with metric or nautical units.
time (UTC)temp
F
wind
direction
speed
MPH
gust
MPH
rain 1hr
in
rain 24hr
in
rain mn
in
humidity
%
barometer
mb
20230205040037 35 99 6.0 17.0 0.00 0.00 0.00 100 1003.3
20230205034536 35 184 9.0 18.0 0.00 0.00 0.00 100 1003.5
20230205033036 35 170 11.0 21.0 0.00 0.00 0.00 100 1003.4
20230205031535 35 154 10.0 19.0 0.00 0.00 0.00 100 1003.6
20230205030034 35 237 4.0 19.0 0.00 0.00 0.00 100 1003.7
20230205024533 35 160 3.0 21.0 0.00 0.00 0.00 100 1004.0
20230205023032 35 182 9.0 22.0 0.00 0.00 0.00 100 1004.6
20230205021531 35 177 12.0 25.0 0.00 0.00 0.00 100 1004.8
20230205020031 35 175 9.0 18.0 0.00 0.00 0.00 100 1005.1
20230205014530 35 225 7.0 18.0 0.00 0.00 0.00 100 1005.2
20230205013029 35 160 5.0 14.0 0.00 0.00 0.00 100 1005.4
20230205011528 35 119 11.0 11.0 0.00 0.00 0.00 100 1005.7
20230205010027 35 189 9.0 20.0 0.00 0.00 0.00 100 1005.9
20230205004527 35 161 6.0 21.0 0.00 0.00 0.00 100 1006.1
20230205003026 35 149 1.0 20.0 0.00 0.00 0.00 100 1006.4
20230205001525 35 147 3.0 12.0 0.00 0.00 0.00 100 1006.6
20230205000024 35 171 7.0 15.0 0.00 0.00 0.00 100 1006.9
20230204234523 35 153 8.0 16.0 0.00 0.00 0.00 100 1007.2
20230204233022 35 300 0.0 11.0 0.00 0.00 0.00 100 1007.5
20230204231521 35 157 5.0 15.0 0.00 0.00 0.00 100 1007.8
20230204230021 35 157 13.0 17.0 0.00 0.00 0.00 100 1008.1
20230204224520 35 189 8.0 17.0 0.00 0.00 0.00 100 1008.4
20230204223019 35 188 5.0 16.0 0.00 0.00 0.00 100 1008.7
20230204221518 35 125 1.0 17.0 0.00 0.00 0.00 100 1009.1
20230204220017 34 189 8.0 13.0 0.00 0.00 0.00 100 1009.5
20230204214516 34 161 7.0 14.0 0.00 0.00 0.00 100 1009.7
20230204213015 35 154 5.0 13.0 0.00 0.00 0.00 100 1010.0
20230204211515 35 151 6.0 15.0 0.00 0.00 0.00 100 1010.4
20230204210014 34 147 6.0 12.0 0.00 0.00 0.00 100 1010.6
20230204204513 34 177 4.0 15.0 0.00 0.00 0.00 100 1011.1
20230204203012 34 229 0.0 8.0 0.00 0.00 0.00 100 1011.4
20230204201511 34 240 9.0 10.0 0.00 0.00 0.00 100 1012.1
20230204200010 34 196 0.0 12.0 0.00 0.00 0.00 100 1012.4
20230204194510 35 202 2.0 15.0 0.00 0.00 0.00 100 1012.6
20230204193009 34 213 2.0 11.0 0.00 0.00 0.00 100 1013.0
20230204191508 34 150 0.0 17.0 0.00 0.00 0.00 100 1013.1
20230204190007 34 216 10.0 15.0 0.00 0.00 0.00 100 1013.3
20230204184506 34 232 5.0 12.0 0.00 0.00 0.00 100 1013.6
20230204183005 34 210 3.0 8.0 0.00 0.00 0.00 100 1013.9
20230204181504 34 229 2.0 9.0 0.00 0.00 0.00 100 1013.9
20230204180004 34 158 5.0 12.0 0.00 0.00 0.00 100 1014.4
20230204174503 34 137 4.0 12.0 0.00 0.00 0.00 100 1014.7
20230204173002 34 220 2.0 9.0 0.00 0.00 0.00 100 1014.9
20230204171501 34 177 0.0 9.0 0.00 0.00 0.00 100 1015.1
20230204170000 34 220 7.0 7.0 0.00 0.00 0.00 100 1015.3
20230204164459 34 196 4.0 12.0 0.00 0.00 0.00 100 1015.6
20230204162959 33 184 3.0 9.0 0.00 0.00 0.00 100 1015.8
20230204161458 33 189 0.0 11.0 0.00 0.00 0.00 100 1016.1
20230204155957 34 97 1.0 7.0 0.00 0.00 0.00 100 1016.4
20230204154456 33 189 6.0 11.0 0.00 0.00 0.00 100 1016.5
20230204152955 33 146 8.0 14.0 0.00 0.00 0.00 100 1016.8
20230204151454 33 205 1.0 8.0 0.00 0.00 0.00 100 1017.0
20230204145954 33 219 6.0 14.0 0.00 0.00 0.00 100 1017.2
20230204144453 33 250 3.0 10.0 0.00 0.00 0.00 100 1017.4
20230204142952 33 177 1.0 6.0 0.00 0.00 0.00 100 1017.6
20230204141451 33 157 6.0 10.0 0.00 0.00 0.00 100 1017.8
20230204135950 33 165 4.0 8.0 0.00 0.00 0.00 100 1018.0
20230204134449 33 209 0.0 11.0 0.00 0.00 0.00 100 1018.3
20230204132949 33 158 6.0 11.0 0.00 0.00 0.00 100 1018.6
20230204131448 33 209 6.0 9.0 0.00 0.00 0.00 100 1018.7
20230204125947 33 202 1.0 5.0 0.00 0.00 0.00 100 1018.9
20230204124446 33 209 0.0 4.0 0.00 0.00 0.00 100 1019.0
20230204122945 33 201 0.0 4.0 0.00 0.00 0.00 100 1019.1
20230204121444 33 220 3.0 7.0 0.00 0.00 0.00 100 1019.1
20230204115943 34 192 1.0 6.0 0.00 0.00 0.00 100 1019.2
20230204114443 34 174 5.0 8.0 0.00 0.00 0.00 100 1019.3
20230204112942 34 194 1.0 7.0 0.00 0.00 0.00 100 1019.4
20230204111441 33 302 1.0 3.0 0.00 0.00 0.00 100 1019.5
20230204105940 34 258 0.0 0.0 0.00 0.00 0.00 100 1019.6
20230204104439 34 191 2.0 6.0 0.00 0.00 0.00 100 1019.7
20230204102938 34 233 2.0 6.0 0.00 0.00 0.00 100 1019.9
20230204101438 34 216 2.0 8.0 0.00 0.00 0.00 100 1019.9
20230204095937 34 241 0.0 7.0 0.00 0.00 0.00 100 1020.0
20230204094436 34 230 3.0 8.0 0.00 0.00 0.00 100 1020.0
20230204092935 34 251 3.0 9.0 0.00 0.00 0.00 100 1020.0
20230204091434 34 272 2.0 9.0 0.00 0.00 0.00 100 1020.0
20230204085933 34 274 6.0 9.0 0.00 0.00 0.00 100 1020.0
20230204084433 33 248 1.0 10.0 0.00 0.00 0.00 100 1020.0
20230204082932 34 219 2.0 6.0 0.00 0.00 0.00 100 1020.1
20230204081431 34 220 0.0 5.0 0.00 0.00 0.00 100 1020.1
20230204075930 34 248 5.0 11.0 0.00 0.00 0.00 100 1020.1
20230204074429 34 260 1.0 9.0 0.00 0.00 0.00 100 1020.1
20230204072928 34 240 2.0 8.0 0.00 0.00 0.00 100 1020.0
20230204071428 34 265 6.0 10.0 0.00 0.00 0.00 100 1020.0
20230204065927 34 241 4.0 11.0 0.00 0.00 0.00 100 1020.0
20230204064426 34 258 3.0 10.0 0.00 0.00 0.00 100 1019.8
20230204062925 34 320 0.0 11.0 0.00 0.00 0.00 100 1019.8
20230204061424 34 253 3.0 12.0 0.00 0.00 0.00 100 1019.8
20230204055923 34 270 7.0 11.0 0.00 0.00 0.00 100 1019.7
20230204054423 33 260 6.0 11.0 0.00 0.00 0.00 100 1019.7
20230204052922 34 281 5.0 12.0 0.00 0.00 0.00 100 1019.7
20230204051421 33 258 8.0 12.0 0.00 0.00 0.00 100 1019.7
20230204045920 33 309 4.0 11.0 0.00 0.00 0.00 100 1019.7
20230204044419 33 236 8.0 11.0 0.00 0.00 0.00 100 1019.7
20230204042918 33 237 3.0 10.0 0.00 0.00 0.00 100 1019.7
20230204041417 32 251 4.0 6.0 0.00 0.00 0.00 100 1019.6